Location: Newark
(41.9364°N, 2.8061°E)
Time: 14:36:24
(UTC+00:00)

A-11 Canister half - Pass Details

Date: 24 February 2020
Orbit: 1516 x 1683 km, 47.2° (Epoch: 08 April)

Event Time Altitude Azimuth Distance (km) Brightness Sun altitude
Rises 21:14:07 0° 297° (WNW) 4,823 12.5 -40.9°
Reaches altitude 10° 21:17:18 10° 294° (WNW) 3,812 11.7 -41.4°
Enters shadow 21:24:51 53° 260° (W) 1,856 9.4 -42.6°
